Weather in Kozlov

Ukraine / Ternopil District     49°33′43″N   25°20′26″E
temp.,
°C
wind,
m/s
gust,
m/s
humid.,
%
clouds,
%
prec.,
mm/h
press.,
hPa
HPBL,
m
13 may, thu
thu1300:00+8ese513820 0.0 1010400
03:00+7ese512840 0.0 1008336
06:00+6se514900 0.0 1006372
09:00+10se798278 0.0 1004603
12:00+12se678096 0.0 1004548
15:00+17s446966 0.6 1002975
18:00+12sw2296100 5.6 100257
21:00+12sse2288100 7.3 100316
14 may, fri
fri1400:00+10sse599763 0.1 1004212
03:00+8sse379825 0.2 1004131
06:00+9s239199 0.0 100337
09:00+13s467816 0.0 1004355
12:00+16wsw557184 1.3 10041187
15:00+14wsw577443 2.8 1005859
18:00+13w687595 0.4 1006875
21:00+10sw4880100 0.6 1007511
15 may, sat
sat1500:00+9sw4992100 0.3 1007518
03:00+10w61297100 2.5 1007771
06:00+9w71395100 2.1 1009588
09:00+11wnw698651 2.3 1011628
12:00+15wnw576229 0.0 10111354
15:00+17w345792 0.1 10111523
18:00+17ssw235854 0.0 10101367
21:00+12ese22746 0.1 101011
16 may, sun
sun1600:00+10se3382100 0.0 101031
03:00+10ese388483 0.1 1010157
06:00+9ese41190100 0.3 1009216
09:00+12se5986100 0.3 1009396
12:00+13sse51188100 1.1 1009499
15:00+14se4985100 1.9 1007815
18:00+16sse58798 1.4 1006902
21:00+13sse3593100 2.9 100583
17 may, mon
mon1700:00+12s3695100 2.5 1005175
03:00+12wnw3697100 3.2 1005207
06:00+11nw2595100 0.1 1005176
09:00+11wnw3695100 0.3 1006442
12:00+14wnw677795 0.3 10061051
15:00+16wnw686939 0.8 10051382
18:00+16nw56660 0.1 10061211
21:00+12sse00841 0.1 100610